Temp
9 10 10 11 11 12 12 13 14 16 17 16 15 15 15 14 14 12 12 12 11 13 12 12 11 11 11 13 12 15 15 16 17 19 20 20 23 22 23 23 22 21 25 28 31 29 30 31 31 29 30 29 31 30 32 33 32 32 31 31 31 31 34
9 9 10 9 10 11 12 12 13 14 16 15 14 14 14 13 13 12 11 11 10 11 11 11 10 10 10 12 11 13 12 14 14 17 17 17 19 19 20 23 21 21 22 21 28 28 30 29 30 26 30 27 28 28 29 29 30 30 31 30 31 31 31
8 8 9 9 9 10 10 11 12 13 14 15 14 13 13 13 12 11 10 10 9 10 10 9 9 9 9 11 9 11 11 13 13 15 15 15 16 16 18 20 22 21 19 20 22 28 25 27 28 25 25 27 28 29 28 27 27 27 28 29 30 30 30
8 7 7 7 7 8 9 10 11 12 13 15 13 12 12 11 11 11 11 10 9 9 9 8 7 8 8 9 8 9 10 11 12 13 14 13 14 15 15 17 20 22 20 20 20 24 25 27 26 26 27 27 26 27 26 26 26 26 25 27 29 29 29
7 6 6 6 6 7 7 8 9 10 11 14 13 12 11 10 10 10 10 10 10 10 9 8 7 7 8 8 7 8 9 10 9 12 11 11 12 12 14 15 18 20 21 20 19 22 25 27 26 26 26 26 23 25 25 25 24 24 24 25 26 28 29
5 5 5 5 6 6 6 7 8 9 9 12 12 11 11 10 9 10 9 9 9 10 9 8 7 7 7 7 7 7 8 9 9 10 9 10 10 11 13 13 15 17 18 19 20 21 22 24 24 22 23 24 23 22 21 21 21 21 23 23 22 25 27
4 4 5 5 5 5 5 6 7 8 8 10 11 10 9 9 9 8 8 8 8 9 9 8 8 7 7 6 7 7 8 9 9 9 8 10 9 10 11 11 13 14 15 16 17 19 20 20 22 20 17 21 22 21 20 18 18 17 22 22 22 22 25
4 4 4 4 4 4 4 5 5 6 6 9 10 9 8 8 7 7 7 7 7 8 8 8 8 8 7 7 7 8 8 9 9 9 7 9 9 10 10 10 11 12 13 13 14 15 16 17 17 17 18 18 17 15 15 18 17 15 17 20 21 20 20
4 3 2 3 3 3 3 3 4 5 5 10 9 8 7 7 7 6 5 5 5 6 7 7 7 7 8 8 8 9 10 10 11 9 6 8 9 9 9 9 9 10 11 11 12 12 14 14 13 14 13 12 11 10 11 14 16 16 18 19 19 20 20
3 2 2 1 1 1 2 2 3 4 8 14 8 7 6 6 5 5 5 4 3 4 5 5 6 6 8 8 7 8 8 8 9 11 10 8 8 8 8 8 7 7 8 9 9 10 10 9 9 10 10 9 10 12 13 11 13 12 16 15 16 18 17
2 1 1 1 -0 -0 0 1 2 4 12 15 15 6 6 4 4 5 4 3 2 2 3 4 5 5 6 7 6 6 7 6 7 9 10 10 10 10 9 7 6 6 7 6 6 9 7 6 5 7 9 8 9 9 9 9 11 11 11 10 9 8 15
1 1 0 -0 -1 -1 -1 -0 2 7 11 14 15 12 4 4 3 4 3 2 2 2 2 2 3 4 5 5 5 5 4 4 6 7 9 9 9 9 10 11 8 6 5 5 2 4 4 3 2 3 6 6 6 7 7 8 9 8 8 7 7 8 6
1 0 -0 -1 -2 -2 -1 -2 1 6 11 12 13 14 6 3 2 2 2 2 2 1 1 1 1 2 3 3 5 4 3 3 3 5 8 9 8 8 8 9 9 10 8 6 2 1 0 2 2 1 4 6 6 8 4 7 5 6 6 6 5 6 8
-0 -0 -1 -1 -2 -3 -3 -3 -0 5 10 11 12 13 8 1 1 2 2 2 1 1 1 1 1 1 0 2 2 2 2 2 2 2 4 5 4 4 6 7 8 7 8 8 3 1 -1 2 3 1 4 6 8 5 4 4 3 5 3 3 4 7 8
-3 -2 -1 -2 -2 -3 -3 -3 1 6 8 9 10 12 7 1 0 1 1 1 1 1 1 1 1 1 0 0 0 1 2 2 2 3 4 4 3 4 4 4 4 3 3 4 3 3 1 2 3 3 5 6 7 7 7 7 5 5 4 5 6 6 8
-3 -3 -3 -2 -2 -3 -4 -3 1 5 7 8 9 10 2 -0 -3 -2 -1 -1 1 1 1 1 1 0 -0 -0 -0 1 4 4 4 4 2 1 2 2 3 2 6 10 10 8 7 6 6 5 7 10 8 9 9 5 4 4 3 1 1 1 0 1 6
-5 -3 -4 -3 -3 -4 -4 -4 -1 2 5 6 8 6 0 -2 -5 -4 -3 -2 -1 -0 0 1 1 1 -0 -0 -1 2 3 5 6 2 1 0 0 1 -1 0 -0 5 9 10 10 9 10 10 10 10 11 12 12 9 4 -4 -5 -5 -1 -4 -4 -1 1
-6 -5 -4 -5 -6 -5 -5 -5 -2 0 2 5 6 5 -0 -3 -6 -7 -6 -4 -2 -1 -1 1 3 2 -0 -1 -1 3 4 7 5 0 1 1 -1 -3 -3 -2 -3 -2 1 6 5 5 5 5 5 6 7 9 9 7 6 -6 -10 -4 -4 -6 -4 -5 -1
-7 -7 -7 -7 -7 -4 -5 -6 -4 -1 -0 4 5 3 -1 -3 -8 -10 -9 -6 -6 -4 -3 -2 -0 1 2 1 2 3 6 6 3 2 0 -1 -4 -6 -7 -4 -5 -4 -2 -2 -3 -3 -2 -2 1 0 -1 1 5 6 6 -3 -4 -4 -7 -6 -5 -4 -3
-9 -10 -10 -8 -8 -8 -6 -7 -6 -4 -1 2 3 4 -1 -4 -10 -13 -11 -10 -8 -7 -6 -4 -3 -1 1 2 2 2 4 6 6 3 -1 -3 -7 -7 -7 -3 -6 -3 -2 -3 -3 -3 -2 -3 -3 -4 -3 -3 -2 1 2 -1 -4 -5 -6 -6 -7 -5 -5
-12 -12 -12 -10 -9 -8 -8 -7 -7 -5 -1 -0 0 2 -0 -7 -11 -12 -11 -12 -11 -10 -9 -8 -6 -4 -1 0 1 0 1 6 8 5 -1 -4 -7 -2 -1 -2 -8 -5 -1 -5 -4 -4 -3 -4 -4 -4 -4 -6 -5 -4 -3 -3 -2 -3 -4 -6 -8 -7 -6
-13 -13 -12 -11 -10 -9 -9 -7 -4 -6 -3 -1 -1 1 -0 -7 -10 -7 -9 -12 -15 -12 -11 -10 -8 -7 -4 -1 -0 -1 2 6 5 2 -2 -3 2 2 -1 -4 -6 -8 -7 -8 -8 -7 -7 -7 -6 -6 -8 -7 -6 -7 -4 -6 -6 -5 -5 -4 -8 -6 -5
-14 -14 -13 -12 -12 -11 -10 -10 -8 -3 -5 -2 -2 -1 -2 -3 -5 -4 -7 -14 -15 -14 -12 -10 -9 -8 -4 -3 -2 0 4 3 -0 -2 -4 0 1 -1 -2 -3 -10 -8 -10 -11 -10 -11 -12 -10 -8 -9 -10 -8 -9 -8 -7 -6 -5 -6 -6 -4 -3 -1 -2
-14 -14 -14 -15 -13 -12 -11 -10 -10 -7 -4 -5 -4 -3 -1 -3 -4 -4 -8 -9 -15 -14 -12 -11 -11 -7 -4 -3 -2 -1 -2 -2 -2 -4 -2 -2 -3 -3 -3 -8 -10 -12 -12 -11 -13 -13 -13 -12 -11 -12 -11 -10 -8 -8 -8 -7 -6 -5 -5 -6 -5 -3 -1
-15 -15 -15 -15 -15 -14 -13 -12 -13 -14 -8 -5 -5 -4 -4 -5 -5 -6 -6 -10 -11 -10 -11 -7 -4 -3 -3 -3 -2 -3 -3 -5 -5 -4 -4 -4 -4 -4 -11 -12 -14 -15 -16 -18 -17 -14 -13 -15 -11 -11 -10 -11 -10 -8 -8 -7 -7 -8 -8 -4 -5 -5 -3
-16 -16 -16 -16 -16 -15 -14 -14 -14 -14 -13 -8 -6 -6 -7 -6 -7 -8 -7 -7 -8 -6 -4 -4 -4 -4 -5 -5 -5 -7 -9 -10 -9 -5 -4 -4 -4 -11 -12 -15 -16 -16 -16 -18 -16 -15 -15 -13 -13 -12 -11 -12 -9 -11 -11 -12 -10 -11 -11 -9 -10 -8 -7
-16 -17 -17 -18 -17 -17 -16 -15 -15 -15 -15 -15 -18 -18 -14 -14 -13 -9 -9 -11 -11 -9 -10 -8 -7 -8 -7 -7 -6 -6 -6 -6 -5 -7 -8 -12 -13 -13 -15 -14 -15 -17 -18 -15 -16 -14 -15 -13 -14 -13 -10 -12 -13 -14 -11 -10 -10 -13 -15 -11 -11 -12 -12
-18 -19 -19 -20 -19 -19 -18 -17 -17 -17 -16 -16 -18 -18 -17 -16 -15 -16 -17 -15 -14 -13 -11 -11 -9 -10 -11 -11 -11 -11 -13 -14 -14 -12 -11 -14 -16 -16 -14 -8 -6 -6 -13 -16 -14 -14 -13 -15 -15 -17 -15 -15 -16 -14 -15 -11 -13 -12 -14 -11 -11 -15 -15
-18 -17 -19 -19 -19 -20 -20 -19 -19 -17 -10 -10 -8 -10 -11 -14 -15 -15 -15 -11 -8 -9 -11 -12 -14 -16 -15 -15 -14 -14 -16 -17 -17 -16 -14 -18 -18 -18 -18 -19 -18 -20 -17 -16 -15 -17 -17 -18 -18 -18 -15 -16 -17 -16 -16 -16 -16 -13 -17 -13 -15 -18 -13
-14 -15 -17 -18 -17 -17 -18 -19 -17 -11 -9 -9 -9 -8 -8 -8 -8 -8 -10 -9 -8 -9 -14 -16 -18 -18 -18 -17 -17 -17 -18 -18 -19 -18 -20 -19 -11 -14 -18 -18 -17 -19 -19 -16 -17 -18 -18 -20 -18 -21 -19 -18 -18 -18 -18 -14 -10 -17 -15 -17 -18 -17 -16
-8 -8 -8 -11 -15 -13 -10 -10 -10 -10 -10 -9 -9 -9 -9 -9 -9 -9 -9 -9 -11 -14 -17 -19 -20 -19 -18 -17 -17 -17 -18 -19 -19 -19 -18 -20 -20 -20 -17 -14 -18 -16 -16 -17 -18 -18 -18 -18 -20 -19 -18 -20 -18 -18 -19 -21 -17 -17 -17 -19 -16 -19 -17
-8 -8 -8 -9 -10 -12 -14 -12 -11 -10 -10 -10 -9 -10 -10 -10 -10 -10 -10 -10 -10 -16 -18 -19 -20 -20 -19 -18 -18 -17 -17 -19 -20 -20 -21 -20 -21 -20 -19 -17 -18 -17 -22 -21 -21 -21 -20 -20 -20 -20 -19 -19 -19 -16 -21 -21 -20 -20 -20 -19 -19 -18 -15
-10 -9 -9 -9 -9 -9 -10 -11 -11 -10 -10 -10 -10 -10 -11 -11 -11 -11 -11 -11 -16 -19 -20 -20 -20 -20 -19 -18 -19 -19 -21 -20 -22 -21 -21 -22 -21 -21 -21 -20 -18 -18 -24 -20 -22 -21 -21 -19 -20 -20 -19 -17 -18 -20 -22 -20 -22 -21 -21 -20 -21 -18 -17
-10 -10 -10 -10 -10 -10 -10 -10 -10 -11 -11 -11 -11 -12 -12 -13 -14 -12 -12 -13 -18 -19 -20 -20 -20 -19 -19 -18 -19 -19 -20 -20 -20 -20 -20 -21 -21 -21 -23 -21 -22 -23 -21 -21 -19 -21 -19 -19 -21 -21 -23 -25 -25 -23 -22 -23 -21 -22 -24 -26 -23 -22 -20
-18 -14 -11 -13 -12 -12 -11 -11 -11 -12 -12 -12 -12 -13 -13 -13 -17 -20 -20 -20 -20 -19 -20 -20 -20 -20 -19 -19 -19 -19 -19 -19 -22 -20 -21 -21 -22 -22 -22 -23 -21 -21 -23 -22 -23 -23 -24 -22 -22 -24 -22 -22 -24 -24 -26 -25 -24 -24 -22 -22 -21 -21 -22
-19 -18 -15 -12 -12 -12 -12 -12 -12 -12 -13 -13 -12 -13 -13 -19 -22 -23 -23 -22 -21 -21 -19 -18 -19 -19 -19 -19 -19 -20 -21 -22 -21 -21 -21 -23 -24 -22 -21 -22 -23 -21 -23 -23 -23 -23 -22 -22 -25 -24 -24 -25 -25 -28 -24 -25 -24 -23 -22 -20 -21 -22 -22
MSLP
1037.21 1036.81 1036.45 1036.05 1035.53 1035.01 1034.57 1034.05 1033.57 1033.09 1032.73 1032.61 1032.49 1032.25 1032.05 1031.97 1031.77 1031.61 1031.41 1031.17 1031.13 1030.81 1030.49 1030.21 1030.05 1029.73 1029.57 1029.21 1028.97 1028.45 1028.17 1027.61 1027.13 1026.45 1026.13 1025.77 1025.09 1024.77 1024.25 1023.81 1023.61 1023.29 1021.93 1021.73 1021.65 1021.77 1021.65 1021.61 1021.53 1021.57 1021.57 1021.49 1021.29 1021.21 1021.05 1020.93 1020.89 1020.77 1020.69 1020.61 1020.49 1020.33 1020.13
1037.57 1037.21 1036.85 1036.45 1035.97 1035.45 1035.05 1034.57 1034.09 1033.61 1033.13 1032.97 1032.85 1032.65 1032.41 1032.33 1032.13 1031.93 1031.77 1031.65 1031.53 1031.33 1031.09 1030.85 1030.69 1030.33 1030.17 1029.69 1029.49 1028.93 1028.77 1028.37 1027.93 1027.17 1026.85 1026.69 1026.13 1025.81 1025.25 1024.53 1024.25 1023.89 1023.37 1023.01 1022.01 1022.09 1021.89 1021.97 1021.93 1022.21 1021.97 1022.01 1021.69 1021.69 1021.53 1021.41 1021.29 1021.21 1021.09 1021.01 1020.85 1020.73 1020.57
1037.93 1037.61 1037.21 1036.85 1036.41 1035.93 1035.45 1034.97 1034.57 1034.05 1033.57 1033.25 1033.21 1033.09 1032.89 1032.73 1032.61 1032.37 1032.17 1032.13 1032.05 1031.89 1031.61 1031.41 1031.17 1031.01 1030.85 1030.33 1029.81 1029.17 1029.09 1028.85 1028.57 1027.97 1027.69 1027.57 1027.09 1026.65 1026.09 1025.49 1024.85 1024.49 1024.21 1023.65 1023.09 1022.37 1022.53 1022.25 1022.37 1022.61 1022.61 1022.33 1022.17 1022.05 1022.01 1021.93 1021.77 1021.69 1021.53 1021.37 1021.21 1021.13 1021.05
1038.25 1037.89 1037.53 1037.21 1036.81 1036.33 1035.89 1035.41 1034.97 1034.49 1034.01 1033.57 1033.57 1033.49 1033.33 1033.13 1033.05 1032.89 1032.69 1032.57 1032.53 1032.37 1032.09 1031.81 1031.69 1031.49 1031.29 1030.93 1030.37 1029.69 1029.41 1029.17 1029.09 1028.65 1028.37 1028.21 1027.89 1027.41 1026.85 1026.29 1025.57 1025.01 1024.69 1024.33 1023.73 1022.97 1022.69 1022.57 1022.57 1022.73 1022.69 1022.61 1022.49 1022.29 1022.33 1022.33 1022.29 1022.05 1021.93 1021.77 1021.57 1021.45 1021.37
1038.49 1038.21 1037.85 1037.53 1037.17 1036.77 1036.33 1035.85 1035.33 1034.89 1034.41 1033.89 1033.81 1033.77 1033.65 1033.57 1033.41 1033.33 1033.17 1033.01 1032.77 1032.73 1032.61 1032.37 1032.13 1031.89 1031.57 1031.37 1030.89 1030.29 1029.85 1029.53 1029.57 1029.21 1029.13 1028.89 1028.65 1028.17 1027.49 1026.93 1026.29 1025.57 1025.05 1024.61 1024.13 1023.53 1022.93 1022.65 1022.73 1022.85 1022.97 1022.89 1022.93 1022.65 1022.73 1022.81 1022.73 1022.57 1022.29 1022.13 1021.97 1021.73 1021.73
1038.85 1038.53 1038.13 1037.81 1037.45 1037.09 1036.73 1036.25 1035.77 1035.33 1034.89 1034.17 1034.05 1033.97 1033.93 1033.81 1033.73 1033.61 1033.53 1033.41 1033.21 1032.93 1032.89 1032.77 1032.53 1032.29 1031.97 1031.73 1031.33 1030.97 1030.45 1030.01 1029.97 1029.77 1029.81 1029.49 1029.29 1028.77 1028.09 1027.61 1026.93 1026.37 1025.65 1024.97 1024.41 1024.05 1023.57 1023.21 1023.21 1023.45 1023.41 1023.37 1023.33 1023.21 1023.21 1023.13 1023.05 1022.93 1022.61 1022.49 1022.29 1022.05 1022.05
1039.05 1038.81 1038.45 1038.13 1037.73 1037.41 1037.01 1036.57 1036.09 1035.69 1035.25 1034.61 1034.21 1034.17 1034.13 1034.05 1033.93 1033.85 1033.73 1033.77 1033.61 1033.33 1033.13 1033.01 1032.81 1032.61 1032.33 1032.05 1031.61 1031.29 1030.89 1030.41 1030.25 1030.21 1030.33 1029.97 1029.77 1029.17 1028.61 1028.17 1027.61 1027.05 1026.41 1025.85 1025.13 1024.61 1024.29 1024.17 1023.97 1024.29 1024.45 1024.05 1024.05 1024.05 1023.97 1023.85 1023.49 1023.41 1023.01 1022.89 1022.69 1022.65 1022.53
1039.21 1038.93 1038.69 1038.37 1038.05 1037.69 1037.29 1036.85 1036.37 1035.97 1035.57 1034.81 1034.37 1034.33 1034.29 1034.17 1034.13 1033.97 1033.97 1033.89 1033.85 1033.61 1033.37 1033.17 1032.97 1032.73 1032.53 1032.29 1031.97 1031.57 1031.25 1030.81 1030.53 1030.53 1030.61 1030.25 1029.89 1029.37 1028.89 1028.53 1028.17 1027.77 1027.17 1026.77 1026.05 1025.53 1025.29 1025.01 1025.05 1024.97 1025.05 1024.97 1024.89 1024.89 1024.65 1024.57 1024.61 1024.53 1023.93 1023.45 1023.21 1023.37 1023.25
1039.37 1039.09 1038.81 1038.49 1038.25 1037.93 1037.53 1037.09 1036.69 1036.29 1035.81 1034.73 1034.53 1034.53 1034.41 1034.41 1034.25 1034.17 1034.09 1034.01 1034.01 1033.85 1033.57 1033.37 1033.05 1032.81 1032.49 1032.33 1032.17 1031.85 1031.57 1031.33 1030.89 1030.81 1030.89 1030.53 1030.09 1029.73 1029.37 1029.05 1028.81 1028.41 1027.97 1027.49 1026.85 1026.41 1026.01 1025.97 1025.93 1025.89 1026.05 1026.09 1026.17 1026.37 1026.33 1025.73 1025.21 1024.89 1024.29 1024.05 1023.89 1023.61 1023.73
1039.41 1039.21 1039.01 1038.69 1038.45 1038.21 1037.89 1037.49 1037.01 1036.57 1035.61 1034.41 1034.69 1034.61 1034.69 1034.57 1034.45 1034.29 1034.25 1034.17 1034.17 1034.01 1033.73 1033.57 1033.29 1032.97 1032.61 1032.41 1032.33 1032.13 1031.97 1031.73 1031.41 1030.97 1030.93 1030.85 1030.45 1030.09 1029.93 1029.65 1029.45 1029.13 1028.81 1028.37 1027.69 1027.09 1026.93 1027.01 1027.01 1026.85 1027.21 1027.25 1027.25 1027.09 1026.77 1026.53 1025.85 1025.57 1024.93 1024.85 1024.49 1024.09 1023.81
1039.45 1039.25 1039.05 1038.89 1038.73 1038.45 1038.13 1037.77 1037.37 1036.77 1035.57 1034.61 1034.29 1034.85 1034.77 1034.81 1034.61 1034.41 1034.33 1034.37 1034.37 1034.21 1033.93 1033.73 1033.49 1033.25 1032.89 1032.69 1032.53 1032.41 1032.25 1032.09 1031.77 1031.33 1030.93 1030.85 1030.69 1030.41 1030.25 1030.21 1030.01 1029.69 1029.41 1029.17 1028.77 1028.05 1028.21 1028.29 1028.29 1027.97 1027.85 1028.01 1027.85 1027.73 1027.57 1027.33 1026.77 1026.49 1026.09 1026.01 1025.53 1025.37 1024.09
1039.45 1039.25 1039.09 1038.97 1038.89 1038.69 1038.37 1038.05 1037.65 1036.89 1035.81 1035.01 1034.49 1034.37 1034.97 1034.81 1034.81 1034.57 1034.49 1034.49 1034.45 1034.33 1034.17 1033.89 1033.57 1033.37 1033.09 1032.89 1032.65 1032.57 1032.53 1032.37 1032.05 1031.69 1031.21 1030.93 1030.89 1030.77 1030.53 1030.41 1030.37 1030.17 1029.89 1029.61 1029.73 1029.37 1029.33 1029.45 1029.29 1029.21 1028.61 1028.53 1028.41 1028.13 1028.09 1027.69 1027.49 1027.33 1027.05 1026.93 1026.61 1026.17 1025.93
1039.53 1039.25 1039.13 1039.01 1038.85 1038.65 1038.41 1038.21 1037.85 1037.13 1036.09 1035.33 1034.89 1034.37 1034.81 1034.97 1034.89 1034.73 1034.57 1034.53 1034.45 1034.37 1034.25 1034.01 1033.73 1033.45 1033.25 1033.13 1032.89 1032.81 1032.69 1032.49 1032.29 1031.93 1031.49 1031.13 1031.13 1031.05 1030.85 1030.65 1030.53 1030.37 1030.13 1030.01 1030.25 1030.13 1030.33 1030.05 1029.89 1029.89 1029.33 1029.05 1028.89 1028.49 1028.57 1027.93 1028.01 1027.77 1027.65 1027.53 1027.29 1026.81 1026.05
1039.65 1039.37 1039.17 1038.97 1038.81 1038.61 1038.41 1038.21 1037.89 1037.25 1036.25 1035.65 1035.13 1034.61 1034.65 1035.17 1035.01 1034.85 1034.61 1034.53 1034.45 1034.33 1034.21 1034.01 1033.77 1033.57 1033.45 1033.29 1033.21 1033.09 1032.85 1032.57 1032.37 1032.09 1031.69 1031.37 1031.29 1031.17 1031.09 1030.89 1030.73 1030.65 1030.33 1030.13 1030.25 1030.33 1030.53 1030.21 1030.13 1030.17 1029.61 1029.33 1029.01 1028.89 1028.65 1028.29 1028.21 1027.89 1027.93 1027.77 1027.53 1026.89 1026.53
1039.77 1039.49 1039.21 1038.97 1038.77 1038.53 1038.29 1038.13 1037.81 1037.17 1036.45 1035.89 1035.37 1034.77 1034.93 1035.29 1035.17 1034.93 1034.69 1034.57 1034.49 1034.29 1034.17 1033.97 1033.73 1033.57 1033.49 1033.37 1033.33 1033.21 1032.89 1032.61 1032.33 1031.93 1031.65 1031.45 1031.37 1031.21 1031.17 1031.05 1030.89 1030.69 1030.45 1030.33 1030.21 1030.29 1030.29 1030.21 1030.05 1029.85 1029.45 1029.17 1028.97 1028.81 1028.57 1028.29 1028.13 1027.97 1027.85 1027.61 1027.25 1026.93 1026.37
1040.01 1039.65 1039.21 1038.93 1038.73 1038.45 1038.21 1037.93 1037.69 1037.21 1036.65 1036.09 1035.61 1034.97 1035.29 1035.41 1035.33 1035.05 1034.85 1034.69 1034.45 1034.29 1034.09 1033.93 1033.73 1033.53 1033.37 1033.29 1033.25 1033.13 1032.85 1032.53 1032.05 1031.69 1031.65 1031.61 1031.37 1031.17 1031.09 1031.05 1030.73 1030.37 1030.25 1030.21 1030.13 1030.13 1030.13 1030.01 1029.73 1029.33 1029.09 1028.81 1028.57 1028.45 1028.37 1028.21 1028.01 1027.97 1027.89 1027.81 1027.65 1027.13 1026.13
1040.09 1039.65 1039.25 1038.93 1038.73 1038.57 1038.25 1037.93 1037.61 1037.33 1036.85 1036.33 1035.73 1035.25 1035.45 1035.49 1035.45 1035.33 1035.01 1034.81 1034.57 1034.41 1034.17 1033.97 1033.73 1033.49 1033.29 1033.17 1033.13 1032.93 1032.73 1032.29 1031.77 1031.81 1031.69 1031.45 1031.17 1031.01 1031.05 1031.01 1031.05 1030.89 1030.57 1030.29 1030.21 1030.21 1030.13 1029.97 1029.69 1029.41 1029.09 1028.81 1028.53 1028.41 1028.37 1028.37 1028.29 1028.29 1027.93 1028.05 1027.81 1027.25 1026.69
1040.05 1039.65 1039.37 1039.17 1038.97 1038.77 1038.33 1037.89 1037.61 1037.37 1037.05 1036.53 1035.93 1035.53 1035.57 1035.57 1035.53 1035.45 1035.25 1034.93 1034.65 1034.49 1034.29 1033.97 1033.69 1033.53 1033.33 1033.09 1032.93 1032.69 1032.53 1031.93 1031.85 1031.85 1031.41 1031.09 1031.13 1031.17 1031.09 1031.21 1031.41 1031.29 1031.01 1030.73 1030.69 1030.65 1030.49 1030.25 1029.97 1029.69 1029.41 1029.09 1028.77 1028.61 1028.45 1028.53 1028.65 1028.25 1028.25 1028.33 1027.93 1027.65 1027.01
1040.13 1039.73 1039.57 1039.45 1039.17 1038.77 1038.37 1037.93 1037.57 1037.33 1037.09 1036.65 1036.09 1035.77 1035.73 1035.69 1035.77 1035.73 1035.57 1035.17 1034.81 1034.61 1034.41 1034.17 1033.97 1033.61 1033.25 1032.97 1032.73 1032.65 1032.37 1032.01 1031.93 1031.57 1031.61 1031.53 1031.45 1031.29 1031.37 1031.41 1031.77 1031.45 1031.05 1030.85 1030.77 1030.69 1030.45 1030.29 1030.01 1029.77 1029.53 1029.25 1028.89 1028.65 1028.41 1028.37 1028.37 1028.29 1028.41 1028.25 1028.05 1027.77 1027.41
1040.33 1040.01 1039.73 1039.53 1039.21 1038.81 1038.37 1037.97 1037.57 1037.29 1037.01 1036.65 1036.21 1035.93 1035.81 1035.93 1036.05 1035.93 1035.69 1035.49 1035.09 1034.61 1034.45 1034.33 1034.01 1033.65 1033.41 1033.09 1032.89 1032.89 1032.65 1032.17 1031.57 1031.33 1031.77 1031.65 1031.57 1031.41 1031.61 1031.49 1031.69 1031.33 1031.01 1030.85 1030.77 1030.57 1030.37 1030.21 1029.93 1029.77 1029.45 1029.17 1028.89 1028.61 1028.53 1028.49 1028.57 1028.53 1028.49 1028.45 1028.29 1028.13 1027.89
1040.37 1040.05 1039.65 1039.37 1039.01 1038.61 1038.25 1037.93 1037.57 1037.17 1036.81 1036.57 1036.45 1036.09 1035.81 1036.05 1036.21 1036.01 1035.73 1035.45 1035.29 1035.01 1034.57 1034.25 1034.09 1033.93 1033.61 1033.21 1033.05 1032.93 1032.73 1032.09 1031.29 1031.21 1031.89 1031.93 1031.73 1031.37 1031.41 1031.53 1031.61 1031.29 1031.05 1030.97 1030.69 1030.49 1030.29 1030.13 1029.93 1029.77 1029.45 1029.13 1028.77 1028.77 1028.93 1028.85 1028.69 1028.69 1028.65 1028.65 1028.53 1028.37 1028.05
1040.13 1039.73 1039.33 1039.01 1038.65 1038.29 1037.93 1037.61 1037.25 1036.93 1036.65 1036.41 1036.29 1036.05 1035.85 1036.09 1036.09 1035.85 1035.61 1035.57 1035.53 1035.29 1034.89 1034.49 1034.13 1033.93 1033.69 1033.33 1033.09 1032.93 1032.57 1031.77 1031.45 1031.73 1032.01 1032.01 1031.49 1031.37 1031.57 1031.57 1031.53 1031.45 1031.21 1030.97 1030.69 1030.53 1030.33 1030.13 1029.97 1029.77 1029.45 1029.09 1028.97 1029.13 1029.13 1029.05 1028.93 1028.81 1028.73 1028.65 1028.61 1028.53 1028.29
1039.77 1039.33 1038.89 1038.53 1038.29 1038.01 1037.73 1037.45 1037.17 1036.81 1036.53 1036.33 1036.17 1036.05 1036.05 1035.97 1035.89 1035.77 1035.69 1035.69 1035.49 1035.33 1035.05 1034.69 1034.33 1033.93 1033.61 1033.29 1033.05 1032.77 1032.29 1032.09 1032.17 1032.13 1032.17 1031.81 1031.53 1031.57 1031.65 1031.61 1031.61 1031.45 1031.17 1030.93 1030.65 1030.41 1030.33 1030.13 1030.01 1029.73 1029.49 1029.25 1029.25 1029.37 1029.29 1029.17 1029.01 1028.81 1028.69 1028.53 1028.33 1028.13 1028.01
1039.53 1039.17 1038.73 1038.41 1038.13 1037.97 1037.77 1037.45 1037.13 1036.89 1036.69 1036.49 1036.37 1036.17 1036.01 1035.93 1035.89 1035.73 1035.69 1035.49 1035.41 1035.25 1035.05 1034.69 1034.37 1033.89 1033.41 1033.05 1032.85 1032.65 1032.53 1032.37 1032.29 1032.25 1032.01 1031.85 1031.73 1031.69 1031.61 1031.61 1031.57 1031.41 1031.21 1030.85 1030.65 1030.41 1030.25 1030.13 1029.93 1029.73 1029.53 1029.45 1029.45 1029.41 1029.29 1029.17 1028.97 1028.73 1028.49 1028.37 1028.17 1027.93 1027.69
1039.41 1039.05 1038.73 1038.45 1038.13 1037.85 1037.65 1037.41 1037.21 1037.05 1036.81 1036.57 1036.33 1036.13 1036.05 1035.93 1035.89 1035.89 1035.73 1035.49 1035.25 1035.01 1034.73 1034.41 1033.93 1033.53 1033.13 1032.85 1032.65 1032.49 1032.49 1032.53 1032.45 1032.29 1032.09 1031.89 1031.73 1031.57 1031.53 1031.49 1031.41 1031.25 1030.97 1030.85 1030.69 1030.53 1030.29 1030.09 1029.89 1029.77 1029.69 1029.57 1029.49 1029.33 1029.21 1029.05 1028.81 1028.53 1028.29 1028.05 1027.93 1027.73 1027.53
1039.25 1038.93 1038.73 1038.41 1038.13 1037.85 1037.61 1037.41 1037.29 1037.05 1036.81 1036.53 1036.21 1036.09 1036.05 1036.01 1036.01 1035.93 1035.73 1035.49 1035.13 1034.65 1034.17 1033.89 1033.65 1033.45 1033.37 1033.21 1033.01 1032.77 1032.61 1032.49 1032.37 1032.13 1031.89 1031.73 1031.53 1031.45 1031.41 1031.29 1031.21 1031.05 1030.89 1030.85 1030.65 1030.53 1030.37 1030.17 1030.01 1029.89 1029.69 1029.65 1029.49 1029.37 1029.21 1028.93 1028.77 1028.49 1028.41 1028.17 1028.05 1027.77 1027.61
1039.29 1039.01 1038.73 1038.45 1038.21 1037.97 1037.73 1037.49 1037.25 1036.97 1036.69 1036.41 1036.29 1036.25 1036.21 1036.21 1036.09 1035.89 1035.65 1035.45 1035.13 1034.77 1034.53 1034.17 1033.93 1033.77 1033.53 1033.37 1033.09 1032.77 1032.45 1032.21 1032.01 1031.89 1031.73 1031.61 1031.45 1031.33 1031.21 1031.17 1031.13 1031.05 1030.89 1030.77 1030.69 1030.57 1030.41 1030.33 1030.09 1029.93 1029.81 1029.69 1029.53 1029.45 1029.17 1028.97 1028.85 1028.61 1028.53 1028.25 1028.25 1027.97 1027.85
1039.33 1039.09 1038.81 1038.57 1038.37 1038.13 1037.77 1037.41 1037.13 1036.93 1036.73 1036.41 1036.13 1036.01 1036.01 1035.93 1035.77 1035.65 1035.45 1035.17 1034.93 1034.65 1034.33 1034.05 1033.81 1033.69 1033.53 1033.29 1032.97 1032.65 1032.37 1032.17 1031.97 1031.77 1031.53 1031.37 1031.21 1031.13 1031.05 1030.97 1030.85 1030.77 1030.73 1030.65 1030.53 1030.53 1030.41 1030.25 1029.97 1029.93 1029.85 1029.73 1029.61 1029.45 1029.29 1029.09 1029.05 1028.85 1028.69 1028.53 1028.33 1028.13 1028.05
1039.13 1038.89 1038.77 1038.65 1038.37 1038.09 1037.57 1037.21 1036.93 1036.81 1036.73 1036.37 1036.09 1035.85 1035.61 1035.45 1035.37 1035.25 1035.09 1034.85 1034.53 1034.17 1033.93 1033.81 1033.65 1033.49 1033.21 1032.97 1032.57 1032.25 1031.97 1031.73 1031.53 1031.41 1031.33 1031.17 1031.05 1030.97 1030.85 1030.81 1030.77 1030.69 1030.57 1030.45 1030.33 1030.25 1030.05 1030.05 1029.97 1029.97 1029.81 1029.73 1029.57 1029.45 1029.29 1029.25 1029.13 1028.97 1028.85 1028.69 1028.53 1028.45 1028.09
1038.61 1038.45 1038.41 1038.25 1037.97 1037.97 1037.53 1036.97 1036.57 1036.53 1036.37 1036.13 1035.93 1035.69 1035.53 1035.25 1035.01 1034.85 1034.69 1034.49 1034.29 1034.09 1033.73 1033.61 1033.49 1033.25 1033.05 1032.73 1032.41 1032.01 1031.73 1031.45 1031.33 1031.21 1031.17 1031.13 1031.01 1030.89 1030.81 1030.69 1030.61 1030.53 1030.45 1030.33 1030.21 1030.09 1030.05 1030.05 1029.93 1030.01 1029.85 1029.69 1029.49 1029.37 1029.29 1029.21 1029.09 1029.13 1028.97 1028.89 1028.69 1028.37 1028.17
1038.13 1037.85 1037.69 1037.61 1037.25 1037.05 1037.01 1036.65 1036.33 1036.13 1035.97 1035.81 1035.61 1035.37 1035.17 1034.97 1034.77 1034.61 1034.45 1034.29 1034.09 1033.77 1033.65 1033.45 1033.29 1033.05 1032.93 1032.65 1032.33 1031.93 1031.61 1031.37 1031.21 1031.13 1031.05 1031.01 1031.01 1030.93 1030.81 1030.69 1030.57 1030.45 1030.37 1030.29 1030.25 1030.17 1030.21 1030.17 1030.13 1030.05 1029.93 1029.73 1029.49 1029.33 1029.25 1029.25 1029.25 1029.17 1029.09 1028.93 1028.65 1028.41 1028.17
1037.81 1037.45 1037.17 1036.93 1036.85 1036.65 1036.33 1036.17 1036.01 1035.85 1035.61 1035.41 1035.21 1035.05 1034.89 1034.65 1034.41 1034.21 1034.13 1034.05 1034.09 1033.57 1033.21 1033.25 1033.09 1032.81 1032.53 1032.29 1031.97 1031.65 1031.41 1031.21 1031.09 1031.01 1030.97 1030.89 1030.81 1030.73 1030.69 1030.57 1030.49 1030.41 1030.45 1030.37 1030.29 1030.29 1030.25 1030.21 1030.17 1030.05 1029.89 1029.69 1029.53 1029.41 1029.33 1029.29 1029.25 1029.17 1029.05 1028.85 1028.65 1028.49 1028.17
1037.49 1037.17 1036.85 1036.57 1036.33 1036.17 1035.93 1035.61 1035.49 1035.37 1035.21 1035.05 1034.85 1034.69 1034.53 1034.33 1034.09 1033.93 1033.85 1033.85 1033.57 1033.33 1032.89 1032.85 1032.73 1032.45 1032.09 1031.85 1031.49 1031.29 1031.13 1031.01 1030.93 1030.89 1030.85 1030.81 1030.65 1030.53 1030.49 1030.49 1030.45 1030.45 1030.49 1030.37 1030.33 1030.29 1030.29 1030.21 1030.13 1029.93 1029.73 1029.65 1029.57 1029.45 1029.41 1029.33 1029.29 1029.25 1029.13 1028.93 1028.65 1028.45 1028.25
1037.21 1036.85 1036.53 1036.25 1036.01 1035.77 1035.53 1035.33 1035.17 1035.05 1034.89 1034.77 1034.65 1034.49 1034.37 1034.21 1033.85 1033.65 1033.49 1033.41 1033.01 1032.85 1032.53 1032.37 1032.25 1031.93 1031.65 1031.41 1031.21 1031.01 1030.93 1030.81 1030.77 1030.73 1030.65 1030.57 1030.49 1030.41 1030.37 1030.37 1030.37 1030.29 1030.17 1030.13 1030.09 1030.05 1030.01 1029.93 1029.81 1029.73 1029.61 1029.53 1029.53 1029.53 1029.49 1029.45 1029.37 1029.25 1029.09 1028.93 1028.77 1028.53 1028.33
1036.53 1036.53 1036.37 1035.97 1035.65 1035.45 1035.25 1035.05 1034.89 1034.73 1034.57 1034.45 1034.33 1034.25 1034.13 1033.97 1033.57 1033.13 1033.05 1033.09 1032.85 1032.49 1032.13 1031.89 1031.65 1031.49 1031.25 1031.13 1030.89 1030.73 1030.69 1030.57 1030.53 1030.49 1030.41 1030.29 1030.21 1030.13 1030.13 1030.13 1030.09 1030.01 1029.97 1029.89 1029.85 1029.81 1029.73 1029.65 1029.57 1029.53 1029.53 1029.45 1029.41 1029.37 1029.37 1029.29 1029.25 1029.21 1029.13 1029.01 1028.81 1028.57 1028.29
1036.09 1036.01 1035.85 1035.65 1035.29 1035.09 1034.89 1034.69 1034.49 1034.29 1034.13 1033.97 1033.81 1033.77 1033.85 1033.49 1033.09 1033.01 1032.69 1032.57 1032.29 1032.09 1031.61 1031.33 1031.05 1030.89 1030.69 1030.65 1030.49 1030.41 1030.33 1030.25 1030.21 1030.13 1030.09 1030.09 1029.97 1029.85 1029.85 1029.85 1029.81 1029.77 1029.69 1029.65 1029.61 1029.53 1029.49 1029.45 1029.45 1029.45 1029.45 1029.45 1029.33 1029.29 1029.25 1029.21 1029.17 1029.09 1029.01 1028.81 1028.57 1028.37 1028.13
Wind_Speed
11 11 11 12 11 11 11 11 11 9 8 8 9 8 9 10 10 11 10 10 12 11 11 11 11 11 11 11 11 10 10 11 11 11 10 10 8 8 9 9 7 6 4 3 4 4 5 6 5 7 8 8 6 8 7 8 7 8 8 7 6 7 15
11 11 11 11 11 11 12 11 11 10 8 8 9 9 9 10 11 10 10 10 10 11 10 11 11 11 12 10 10 10 11 11 11 11 10 11 10 9 9 9 8 7 5 6 5 5 6 5 7 5 8 7 7 8 7 8 8 7 7 7 6 6 7
11 11 11 11 11 11 11 11 11 10 9 7 8 9 9 10 10 10 10 11 10 10 9 11 11 11 11 9 10 10 9 11 11 10 11 11 10 10 10 10 9 7 6 7 6 4 5 5 5 6 7 8 6 5 6 7 7 7 7 6 7 5 5
10 10 10 10 11 10 10 11 11 10 10 8 8 8 9 9 9 10 9 10 10 10 10 10 10 11 11 11 10 10 10 9 10 10 10 11 10 10 11 10 9 7 6 6 5 7 4 4 4 4 6 6 6 5 6 6 5 5 5 7 6 6 5
10 10 10 10 10 11 11 10 11 10 11 6 6 7 7 8 8 9 9 9 9 10 9 10 9 10 10 11 10 10 10 10 12 9 9 10 10 10 10 9 9 9 8 6 6 6 5 2 3 3 4 7 6 5 6 6 7 8 5 7 5 5 6
9 9 10 9 10 10 11 10 10 10 11 7 6 6 6 6 7 8 8 9 9 9 8 8 9 9 9 10 9 10 9 8 10 9 10 10 10 10 9 9 9 9 9 8 6 6 6 6 5 6 6 9 8 7 7 7 6 7 6 8 7 6 6
9 9 9 9 9 10 10 11 10 9 10 8 4 5 6 6 7 7 7 7 8 8 8 7 7 8 9 9 9 9 9 8 8 8 9 8 9 9 8 8 9 9 9 9 8 7 7 6 7 7 8 9 10 9 9 9 9 8 7 7 6 6 6
9 9 9 9 9 9 9 9 9 9 10 9 4 4 5 6 6 7 6 7 7 7 7 7 7 7 8 8 9 9 9 9 7 7 7 8 8 9 9 7 8 8 8 8 7 7 7 7 7 7 7 8 9 9 9 9 8 8 8 8 6 5 6
8 9 9 9 9 9 9 9 9 8 11 8 3 4 5 5 6 6 6 6 7 7 7 7 7 7 7 9 13 14 13 14 12 6 6 8 8 8 8 8 7 7 7 7 6 6 6 6 7 7 8 9 10 10 9 9 8 7 6 6 6 2 5
7 7 8 9 10 9 9 9 8 14 25 19 2 3 2 4 5 5 5 5 6 7 7 7 7 8 12 12 13 13 15 15 16 13 8 8 8 8 8 8 8 7 7 7 6 6 6 6 5 7 8 8 8 8 9 9 9 9 8 8 6 5 2
8 6 7 7 8 10 9 8 9 21 22 23 16 3 3 3 6 5 4 4 5 6 7 7 7 7 9 9 10 10 14 15 16 16 12 12 13 11 8 7 7 6 6 7 6 7 7 6 6 7 7 7 7 7 8 8 8 7 8 8 9 8 7
7 6 6 6 7 8 8 9 14 21 22 21 22 13 4 4 5 5 4 3 4 5 6 7 6 6 6 7 8 8 8 11 15 16 14 11 11 12 12 10 8 7 6 6 5 6 6 6 6 6 7 7 8 8 7 7 6 7 7 8 7 7 7
8 7 6 6 7 7 8 8 14 20 21 21 20 20 7 6 4 5 4 3 4 4 5 5 6 6 6 6 12 9 7 8 9 13 15 10 9 8 12 10 10 10 7 4 5 4 5 6 7 6 7 8 9 8 7 7 6 6 6 6 7 7 9
9 8 8 7 7 7 7 8 13 19 21 20 20 20 11 6 6 5 4 4 4 4 4 6 6 5 6 6 7 7 8 8 8 9 9 5 3 3 7 9 8 7 9 7 3 3 4 5 4 5 6 7 8 8 7 7 7 6 6 7 7 9 10
8 8 9 7 7 7 7 7 16 19 21 20 20 21 11 6 6 5 4 4 5 4 5 6 5 5 5 6 6 6 9 9 9 9 7 5 6 3 3 4 4 3 1 3 1 2 2 4 5 6 6 6 5 6 6 6 6 6 7 8 9 8 9
7 9 9 8 8 8 8 8 16 18 19 21 19 20 6 6 6 6 5 4 5 5 4 5 5 5 5 5 5 9 13 13 11 8 7 7 7 4 3 2 6 6 6 4 2 1 4 6 8 11 9 8 7 4 4 5 4 4 5 7 7 7 6
9 8 8 8 8 9 9 9 13 18 19 19 20 15 6 6 4 5 6 5 5 5 5 5 6 5 5 5 5 10 13 15 15 8 9 9 9 4 1 3 3 7 8 8 8 10 13 15 16 15 15 14 15 10 6 4 5 5 4 4 5 6 5
9 7 6 8 10 10 11 10 13 17 17 18 20 16 8 5 4 4 6 7 6 5 5 7 12 11 8 6 6 10 14 17 14 10 10 7 4 5 4 2 4 5 5 7 7 9 12 13 14 15 14 15 15 12 8 1 2 5 3 4 4 5 5
8 7 7 8 10 15 14 10 11 15 16 18 18 14 7 6 3 5 6 6 7 7 6 7 8 13 11 9 8 13 16 19 16 9 5 4 4 4 4 2 4 5 5 4 4 5 5 6 9 8 7 8 13 13 9 3 4 5 2 4 4 4 5
7 9 9 8 9 9 9 10 9 11 17 17 17 17 9 4 5 5 5 6 7 8 7 7 7 8 12 14 12 13 16 18 20 6 4 4 2 2 4 3 6 6 7 6 6 6 5 6 6 6 6 6 6 6 3 4 2 2 3 3 3 4 4
9 9 9 8 8 8 8 8 9 10 15 15 15 16 12 4 5 5 6 5 6 6 8 7 6 5 11 13 13 13 16 18 19 13 7 6 4 3 7 8 5 7 10 6 6 6 5 5 4 6 7 5 5 4 5 5 7 6 5 6 4 5 6
9 8 9 8 8 7 8 8 12 9 9 13 14 15 15 8 4 7 6 5 5 6 7 8 7 5 10 15 14 14 17 19 17 17 8 7 12 13 12 8 4 6 6 6 5 5 5 5 5 6 6 4 4 4 7 5 6 5 5 6 4 4 6
8 8 7 7 6 6 6 7 7 11 8 10 13 14 13 14 10 12 6 5 5 5 7 7 8 9 15 16 16 17 19 17 18 13 8 15 14 13 14 10 5 7 6 6 6 4 4 4 5 6 3 4 3 5 5 6 6 7 6 6 6 6 5
7 7 7 7 7 6 6 6 6 6 10 10 14 15 14 13 12 12 7 6 5 5 6 7 7 10 17 18 18 18 16 15 14 10 15 15 14 14 12 5 6 5 6 5 4 5 5 6 5 3 5 3 1 4 4 6 6 8 8 5 5 6 7
6 7 7 7 8 7 6 6 6 6 8 13 13 13 11 10 12 13 15 9 6 7 6 10 16 17 17 17 17 17 14 11 12 16 16 15 15 13 4 5 5 6 3 2 4 6 6 4 5 3 2 3 4 4 4 5 5 4 4 6 6 5 4
7 7 7 8 7 7 7 6 6 7 6 7 8 6 7 10 12 14 16 15 11 14 15 14 14 15 15 14 14 11 8 8 8 14 16 15 13 5 6 3 3 2 3 4 5 3 4 5 4 5 4 4 5 5 6 4 5 4 6 5 6 6 8
7 8 7 8 7 7 8 8 7 7 6 6 3 3 4 5 6 10 12 9 8 9 8 10 11 10 15 14 19 18 16 14 13 10 8 7 5 5 3 2 2 4 4 4 5 6 5 6 6 3 4 6 3 4 6 5 4 5 5 4 6 5 6
8 8 8 7 7 8 8 8 7 6 6 8 5 3 5 5 4 5 5 6 6 7 8 7 9 11 7 8 8 8 6 6 6 7 7 6 4 3 4 6 8 7 5 4 5 6 6 4 3 3 5 3 4 6 4 5 4 4 5 6 6 5 6
9 9 7 6 7 8 9 8 9 7 8 11 13 13 11 8 6 5 5 9 15 12 8 6 7 6 7 6 7 6 7 7 6 6 6 5 4 5 5 4 2 3 6 5 2 2 2 1 3 4 5 4 4 4 4 4 5 5 4 6 5 5 7
11 10 7 7 8 7 9 10 9 14 20 21 21 21 21 19 19 17 14 16 20 14 9 7 6 6 7 7 6 7 6 6 5 6 6 6 5 6 5 4 4 4 4 5 3 1 1 2 3 4 5 6 5 5 4 5 5 4 5 4 6 6 6
22 24 23 15 11 11 19 22 23 23 21 21 20 20 19 19 18 19 19 19 13 9 7 7 7 7 7 8 7 7 7 6 6 4 6 6 5 4 4 6 4 6 5 4 1 1 1 2 3 5 5 4 4 3 4 4 4 4 5 5 6 6 6
22 23 22 23 20 15 10 16 20 22 21 20 21 20 20 20 21 20 19 18 16 11 9 6 7 7 8 7 7 7 7 6 6 6 5 6 5 6 4 5 6 3 1 1 1 1 4 3 4 6 5 4 3 5 4 4 5 5 6 5 6 5 6
21 21 22 22 23 24 21 20 20 23 23 22 22 21 20 20 21 20 19 17 11 8 9 7 8 8 8 8 8 7 7 6 5 6 6 5 6 5 4 4 5 1 1 2 2 3 5 6 6 5 6 5 5 4 4 4 3 5 5 6 6 6 7
17 18 19 19 21 21 21 21 22 22 22 22 21 21 20 18 15 18 19 15 10 8 9 8 8 8 8 8 7 7 6 6 6 6 6 6 6 6 4 5 4 4 5 4 5 5 6 5 6 6 4 4 2 2 2 4 6 5 4 4 4 5 6
8 10 15 14 12 15 19 19 19 20 21 22 21 20 20 19 12 11 9 8 7 9 9 9 9 9 9 7 7 7 6 7 6 6 6 6 6 6 6 5 5 6 5 6 5 5 5 5 4 4 4 2 2 4 4 5 4 5 6 6 6 6 6
10 8 7 16 18 20 20 21 21 21 21 21 21 19 17 11 9 9 9 8 8 8 9 9 9 9 9 8 8 7 7 6 6 6 6 6 6 6 6 6 6 7 6 5 6 6 5 4 4 3 4 5 5 4 5 6 5 6 5 5 6 5 6
Wind_Direction
345 345 346 343 344 347 345 348 349 346 4 10 9 8 13 8 11 13 9 8 6 7 7 11 11 9 3 1 359 3 357 358 349 359 359 352 357 356 357 3 1 351 10 55 60 23 30 16 36 35 24 19 20 17 15 29 24 25 26 22 22 20 27
344 344 343 343 342 345 345 346 345 344 353 13 9 9 13 10 8 13 13 10 8 5 6 6 8 8 1 1 359 5 4 359 350 358 1 357 358 356 350 351 2 348 355 343 354 27 9 37 27 39 19 18 15 19 15 16 24 20 17 15 15 17 20
343 342 341 342 342 345 344 345 345 342 342 12 15 12 13 12 8 9 8 11 7 4 2 7 10 3 1 353 360 10 6 3 355 357 2 359 354 354 349 346 350 354 351 343 337 4 21 11 37 45 12 11 2 20 22 16 12 16 6 8 7 11 16
340 342 341 342 341 341 341 341 344 343 337 13 18 17 15 13 14 8 7 8 8 3 3 6 9 4 1 352 2 5 9 9 359 360 358 358 353 350 348 343 337 354 349 328 349 335 24 352 38 36 32 16 2 6 29 16 359 2 13 0 0 6 15
342 341 344 342 339 340 338 337 338 343 336 4 19 17 19 18 16 11 7 4 1 7 1 2 7 1 3 354 3 2 9 9 2 2 357 358 351 346 345 340 340 345 343 337 341 334 331 15 40 60 44 23 13 2 34 15 9 359 352 2 348 357 32
341 340 340 337 338 337 335 334 335 336 336 347 17 17 19 21 20 12 12 3 355 359 5 359 357 1 1 0 2 3 356 7 3 3 358 355 352 344 345 343 343 343 340 344 341 350 350 1 25 26 24 19 10 10 17 13 9 3 359 2 358 357 41
338 338 340 335 338 336 334 331 330 332 333 330 9 19 15 21 14 14 9 5 354 351 358 357 355 358 0 0 356 2 353 356 10 8 1 350 353 337 350 340 347 341 348 350 350 354 8 357 24 30 14 10 15 16 20 7 359 5 356 1 360 2 28
337 334 336 335 336 332 331 329 329 329 326 316 12 14 28 11 14 7 6 5 354 348 349 350 353 352 357 2 354 360 356 352 6 10 3 349 357 342 351 345 348 345 352 347 353 358 7 2 15 14 18 11 17 10 8 11 1 348 344 351 359 35 23
336 332 333 334 335 333 331 333 332 327 318 315 27 34 10 28 5 8 358 0 356 345 345 345 347 344 349 1 359 1 2 356 358 18 4 353 357 348 357 351 355 345 352 345 352 356 9 12 16 15 16 13 18 14 354 348 341 339 335 354 346 32 53
328 328 330 333 334 335 333 335 333 330 326 341 92 13 49 17 9 4 356 357 351 345 342 343 341 341 347 355 356 357 358 355 354 2 18 1 354 353 359 357 357 354 353 341 347 348 16 17 14 21 26 18 11 360 353 348 347 353 347 356 336 333 26
317 323 329 331 333 332 332 331 333 328 330 337 349 79 8 46 4 4 360 360 352 341 340 336 338 338 340 347 350 353 355 351 350 347 357 7 1 355 359 357 357 355 359 349 352 354 27 16 12 6 21 16 5 356 5 337 348 348 349 356 349 336 332
314 320 321 327 324 325 326 329 328 330 330 335 336 349 48 13 12 3 345 6 345 338 336 330 330 334 337 336 346 349 349 347 342 341 342 352 359 352 351 359 6 356 357 5 5 4 14 20 3 351 2 2 2 348 356 339 359 341 349 342 337 327 320
317 314 320 319 317 319 323 322 326 326 330 332 335 334 39 9 12 346 337 347 338 335 331 326 326 327 337 334 344 344 337 337 335 332 333 338 356 354 348 348 357 2 5 29 24 20 4 11 358 355 344 351 342 341 338 336 341 332 334 325 315 309 313
316 322 316 314 313 311 313 318 321 323 327 331 334 329 10 9 357 327 328 344 336 327 326 322 320 326 329 332 340 334 327 329 327 318 317 321 335 335 340 336 340 355 4 11 56 40 12 340 0 325 314 320 324 329 322 324 318 322 317 309 297 299 303
318 316 313 309 311 306 308 307 318 320 325 328 331 327 4 358 346 324 324 346 323 317 324 311 314 321 315 321 330 327 323 327 312 307 310 328 324 305 298 313 301 269 306 348 24 64 350 316 310 285 285 288 291 280 283 292 292 303 299 296 297 298 278
314 308 306 311 309 310 309 307 315 317 322 324 327 329 8 356 333 326 325 328 323 318 313 314 313 306 306 310 318 316 320 320 313 320 336 317 298 283 264 270 291 305 328 329 314 8 336 326 314 316 311 304 297 286 290 300 316 332 313 301 300 294 307
309 302 307 312 319 317 310 305 310 314 317 322 323 329 359 345 339 323 325 321 323 322 313 310 306 308 304 308 302 308 317 315 326 337 316 298 286 277 315 288 12 1 336 328 337 338 335 330 326 322 319 318 316 318 326 6 353 298 288 333 306 300 313
303 303 314 320 315 310 304 303 306 309 313 316 320 329 341 335 343 325 324 318 318 318 316 310 316 316 309 296 285 310 317 321 335 316 302 313 8 6 321 20 15 350 332 346 344 335 327 323 316 312 308 310 314 315 313 337 280 266 13 308 291 289 295
300 306 313 310 305 305 303 299 301 307 309 312 317 328 334 343 3 347 318 315 319 316 316 318 311 305 307 307 312 323 322 327 322 315 12 9 4 334 1 29 27 329 326 328 334 321 309 308 301 298 294 285 285 292 296 283 251 289 321 284 297 309 318
301 304 301 299 298 292 294 296 299 302 305 307 315 322 331 1 12 320 313 316 307 314 312 307 301 310 314 310 316 323 324 319 315 325 28 351 353 1 338 21 1 329 327 328 320 307 301 295 297 305 303 296 287 287 330 19 23 5 4 345 310 308 301
290 287 286 285 281 281 282 285 288 290 300 306 310 312 324 23 338 300 292 296 312 307 306 305 311 307 306 310 314 318 316 312 309 336 16 342 316 325 340 359 338 324 328 316 310 304 309 300 315 308 298 299 318 23 32 10 356 357 343 341 320 310 304
280 278 279 274 270 270 270 272 277 284 289 300 305 307 320 327 299 312 315 329 317 305 300 303 304 305 306 307 310 314 308 308 321 334 348 323 310 322 339 334 324 317 306 294 299 302 302 315 313 298 299 323 360 22 7 356 334 325 309 299 277 272 288
283 283 283 286 288 285 289 291 293 298 306 313 315 312 313 313 320 318 324 307 291 291 293 297 301 302 305 304 308 307 310 318 319 321 318 310 312 320 322 322 314 288 294 293 286 301 309 300 303 295 321 336 6 358 345 333 313 299 289 281 279 271 250
295 293 295 298 299 299 296 290 290 307 321 324 319 309 308 314 316 323 320 307 281 273 280 283 285 290 299 304 304 307 309 309 315 311 309 311 312 312 313 311 300 290 274 277 309 311 305 294 282 310 328 321 359 338 309 301 295 289 285 272 269 276 274
291 293 298 301 297 297 297 298 310 313 310 305 302 302 302 309 324 330 325 317 291 283 261 268 280 288 298 304 309 310 314 314 306 303 301 301 302 302 294 289 269 275 282 328 298 277 276 296 300 292 302 320 343 325 327 306 299 300 327 327 324 307 311
295 298 298 295 297 300 302 305 309 298 294 292 297 312 324 320 325 324 321 317 311 304 308 317 318 317 317 315 310 307 298 294 286 289 292 293 295 292 278 260 271 300 323 291 278 290 293 284 298 320 297 346 333 336 300 301 324 334 341 329 344 333 327
296 294 295 296 299 303 302 303 299 296 293 297 339 2 340 329 309 309 312 307 297 310 317 311 312 307 303 301 298 293 290 289 292 290 286 270 271 280 285 311 331 293 273 291 293 286 285 282 281 289 355 320 305 325 312 313 320 343 325 340 328 330 320
286 285 287 292 297 296 297 293 292 299 307 295 296 295 287 275 290 290 281 289 290 285 289 295 297 299 293 286 281 277 268 266 264 272 277 280 278 270 282 289 287 291 281 259 257 262 273 287 314 357 296 307 326 304 305 317 354 330 323 328 319 346 311
270 270 267 272 279 288 291 289 286 280 290 295 299 301 305 306 292 284 280 288 298 300 295 294 295 287 287 277 278 274 272 268 274 283 287 296 308 302 291 284 285 284 280 267 265 265 276 313 324 320 310 314 313 308 295 311 352 322 348 312 341 312 297
270 267 261 263 258 249 265 274 275 286 289 291 293 293 293 292 292 294 296 299 300 299 298 292 286 281 280 282 275 274 270 271 271 272 287 294 290 297 299 292 281 270 275 287 287 280 358 316 315 312 305 303 294 292 330 312 343 321 321 323 302 289 291
281 279 274 269 273 268 268 274 279 284 288 290 291 292 292 292 291 291 291 295 300 293 280 283 279 281 278 276 272 267 264 261 265 269 271 273 270 270 277 277 276 272 273 278 312 324 326 314 317 295 283 287 290 297 300 328 312 307 307 293 286 293 294
286 284 283 277 271 271 275 272 275 279 282 285 287 290 290 289 287 286 287 289 291 286 278 267 269 270 267 267 266 263 262 259 259 262 259 261 266 265 256 265 266 268 120 249 317 303 288 284 282 275 277 277 288 296 300 301 301 296 284 288 296 299 291
283 282 281 279 277 273 272 276 279 281 282 284 286 287 287 287 285 284 283 286 278 262 272 262 260 258 259 259 258 259 252 253 253 256 261 257 255 259 254 254 264 254 151 232 226 254 262 262 259 263 273 280 278 283 282 279 288 295 296 288 287 286 290
278 282 283 282 279 277 277 278 280 281 282 283 284 285 286 286 284 280 276 271 267 259 257 258 255 256 256 256 259 259 260 260 258 256 256 258 251 251 252 253 259 276 261 241 245 250 255 252 246 244 246 261 273 274 283 297 283 280 285 297 289 285 289
279 267 268 272 274 272 275 277 280 281 283 282 282 281 282 285 283 278 274 265 254 256 252 251 249 250 252 250 255 259 256 257 252 253 253 252 252 250 255 260 257 251 243 239 243 245 250 255 259 262 260 244 255 274 271 264 270 284 287 282 283 276 274
279 276 266 269 273 274 276 277 277 278 278 277 277 276 278 277 269 270 265 262 254 248 253 245 242 238 242 241 243 244 246 242 248 248 248 245 242 247 246 250 255 253 250 250 243 244 241 249 255 254 261 260 250 238 243 250 254 258 260 258 261 268 272